#timestamp,LO_Frequency,Hit,StdDev 
1556967615.1,286047000.2,N
1556967616.0,286047000.2,N
1556967635.8,286046998.7,N
1556967655.7,286046998.9,N
1556967675.5,286047002.6,N
1556967695.3,286047002.4,N
1556967715.2,286047001.7,N
1556967735.0,286047004.4,N
1556967735.9,286047004.4,N
1556967755.8,286047001.3,N
1556967775.6,286047001.8,N
1556967795.4,286046999.9,N
1556967815.3,286047000.0,N
1556967835.1,286047002.7,N
1556967855.8,286047001.1,N
1556967875.7,286047001.1,N
1556967895.5,286047001.8,N
1556967915.4,286047000.0,N
1556967935.2,286047000.7,N
1556967955.0,286046998.5,N
1556967955.9,286046998.5,N
1556967975.8,286047000.4,N
1556967995.6,286046998.9,N
1556968015.4,286046998.5,N
1556968035.3,286047002.8,N
1556968055.1,286047002.0,N
1556968075.9,286047003.5,N
1556968095.7,286047003.8,N
1556968115.5,286047003.5,N
1556968135.4,286046999.7,N
1556968155.2,286046998.8,N
1556968175.0,286047000.3,N
1556968176.0,286047000.3,N
1556968195.8,286046998.6,N
1556968215.6,286046998.6,N
1556968235.5,286046999.3,N
1556968255.3,286046999.0,N
1556968275.1,286046999.4,N
1556968295.9,286046999.2,N
1556968315.7,286046999.1,N
1556968335.6,286047011.9,Y
1556968355.4,286046996.9,P
1556968375.2,286046997.2,N
1556968395.1,286046996.9,N
1556968396.0,286046996.9,N
1556968415.8,286046996.6,N
1556968435.6,286046998.7,N
1556968455.5,286046999.7,N
1556968475.3,286047000.2,N
1556968495.2,286047004.0,N
1556968515.9,286047002.4,N
1556968535.7,286047001.7,N
1556968555.6,286047001.7,N
1556968575.4,286046999.8,N
1556968595.2,286047002.0,N
1556968615.1,286047001.8,N
1556968616.0,286047001.8,N
1556968635.8,286047001.3,N
1556968655.7,286047001.7,N
1556968675.8,286047002.0,N
1556968695.7,286047002.4,N
1556968715.5,286047002.2,N
1556968735.3,286047002.8,N
1556968755.2,286047001.7,N
1556968775.0,286047004.4,N
1556968775.9,286047004.4,N
1556968795.7,286047003.5,N
1556968815.6,286047003.6,N
1556968835.4,286047001.3,N
1556968855.3,286047002.2,N
1556968875.1,286047001.6,N
1556968876.0,286047001.6,N
1556968895.8,286046999.8,N
1556968915.7,286047002.8,N
1556968935.5,286047000.6,N
1556968955.3,286047001.0,N
1556968975.2,286046998.3,N
1556968995.0,286047000.8,N
1556968995.9,286047000.8,N
1556969015.8,286047001.0,N
1556969035.6,286047001.6,N
1556969055.4,286047004.2,Y
1556969075.3,286047002.4,P
1556969095.1,286047000.7,N
1556969115.8,286046998.9,N
1556969135.7,286046999.5,N
1556969155.5,286046996.6,N
1556969175.4,286046996.8,N
1556969195.2,286046997.2,N
1556969215.0,286046998.6,N
1556969215.9,286046998.6,N
1556969235.8,286046999.5,N
1556969255.6,286046999.3,N
1556969275.4,286046997.4,N
1556969295.3,286046999.5,N
1556969315.1,286046998.7,N
1556969335.8,286046998.9,N
1556969355.7,286047000.1,N
1556969375.5,286047000.4,N
1556969395.4,286046999.8,N
1556969415.2,286047000.5,N
1556969435.0,286047000.9,N
1556969435.9,286047000.9,N
1556969455.8,286046996.5,N
1556969475.6,286046997.0,N
1556969495.4,286046999.2,N
1556969515.3,286046996.8,N
1556969535.1,286046995.1,Y
1556969555.9,286046996.7,P
1556969575.7,286046996.7,N
1556969595.5,286046997.7,N
1556969615.4,286046995.3,Y
1556969635.2,286046996.9,P
1556969655.0,286046999.6,N
1556969656.0,286046999.6,N
1556969675.8,286046998.5,N
1556969695.6,286046998.9,N
1556969715.5,286046999.4,N
1556969735.3,286046999.0,N
1556969755.1,286046996.5,Y
1556969775.9,286046999.7,P
1556969795.7,286046999.7,N
1556969815.5,286046999.8,N
1556969835.4,286046999.8,N
1556969855.2,286047002.0,Y
1556969875.1,286047001.5,P
1556969876.0,286047001.5,N
1556969895.8,286047001.4,N
1556969915.6,286047004.1,Y
1556969935.5,286047000.5,P
1556969955.3,286047000.7,N
1556969975.2,286047001.0,P
1556969995.9,286046999.9,N
1556970015.7,286047002.8,Y
1556970035.6,286047000.0,P
1556970055.4,286047000.8,N
1556970075.2,286046998.4,P
1556970095.1,286046998.2,N
1556970096.0,286046998.2,N
1556970115.8,286046998.4,N
1556970135.7,286046996.7,Y
1556970155.5,286047000.0,P
1556970175.3,286047000.5,N
1556970195.2,286047000.9,N
1556970215.1,286047000.0,N
1556970235.9,286047000.3,N
1556970255.7,286047000.0,N
1556970275.5,286047000.6,N
1556970295.4,286047001.1,N
1556970315.2,286046999.6,N
1556970335.0,286046999.2,N
1556970335.9,286046999.2,N
1556970355.8,286046997.2,Y
1556970375.6,286046999.1,P
1556970395.5,286046999.3,N
1556970415.3,286046998.9,N
1556970435.1,286046999.2,N
1556970455.9,286046998.8,Y
1556970475.7,286047000.5,P
1556970495.6,286047000.4,N
1556970515.4,286047002.7,P
1556970535.2,286047002.8,N
1556970555.1,286047000.5,N
1556970556.0,286047000.5,N
1556970575.8,286047002.4,N
1556970595.7,286046999.9,N
1556970615.5,286046998.9,N
1556970635.3,286046999.4,N
1556970655.2,286046998.9,N
1556970675.0,286046999.5,N
1556970675.9,286046999.5,N
1556970695.8,286046999.2,N
1556970715.6,286046998.5,N
1556970735.4,286046998.3,N
1556970755.3,286046998.8,N
1556970775.1,286046998.6,N
1556970795.9,286047000.8,N
1556970815.7,286046999.8,N
1556970835.5,286046998.7,N
1556970855.4,286046998.5,N
1556970875.2,286046999.1,N
1556970895.0,286047001.1,N
1556970895.9,286047001.1,N
1556970915.8,286047000.0,N
1556970935.6,286047008.0,Y
1556970955.5,286047012.9,P
1556970975.3,286047015.3,N
1556970995.1,286047011.4,N
1556971015.9,286047011.8,N
1556971035.7,286047011.2,N
1556971055.6,286047013.6,N
1556971075.4,286047014.8,Y
1556971095.2,286047007.3,P
1556971115.1,286047005.8,P
1556971116.0,286047005.8,N
1556971135.8,286047003.2,N
1556971155.6,286047002.5,N
1556971175.5,286047000.6,N
1556971195.3,286046998.6,N
